Miscellaneous Local Product
Issued by NWS Hastings, NE

Home | Current Version | Previous Version | Text Only | Print | Product List | Glossary On
Versions: 1 2 3 4 5 6 7 8 9 10 11 12 13 14 15 16 17 18 19 20 21 22 23 24 25 26 27 28 29 30 31 32 33 34 35 36 37 38 39 40 41 42 43 44 45 46 47 48 49 50
000
AXUS43 KGID 240102
MISGRI

GID CWA HOURLY WEATHER ROUNDUP
NATIONAL WEATHER SERVICE HASTINGS NE
800 PM CDT WED APR 23 2014

NOTE: "FAIR" INDICATES FEW OR NO CLOUDS BELOW 12,000 FEET WITH NO
SIGNIFICANT WEATHER AND/OR OBSTRUCTIONS TO VISIBILITY.

...SOUTH CENTRAL NEBRASKA...

CITY           SKY/WX    TMP DP  RH WIND       PRES   REMARKS
GRAND ISLAND   TSTM      60  52  74 S20G36    29.54R
HASTINGS       CLOUDY    66  48  52 NW10      29.53R THUNDER
KEARNEY        CLOUDY    63  54  72 SW20G31   29.53R
ORD            MOCLDY    75  42  30 N18G26    29.48R
YORK           TSTM      63  50  63 N13G28    29.59R
AURORA         CLOUDY    63  54  74 E16       29.51F
LEXINGTON      MOCLDY    74  29  19 N15G24    29.50R THUNDER
HOLDREGE       TSTM      64  51  63 SE8G20    29.54R
HEBRON         PTCLDY    77  45  32 S15G22    29.49F

...NEBRASKA PANHANDLE...

CITY           SKY/WX    TMP DP  RH WIND       PRES   REMARKS
CHADRON        CLOUDY    56  40  55 NE10      29.70R
ALLIANCE       CLOUDY    57  30  35 N6        29.70R
SCOTTSBLUFF    CLOUDY    59  11  15 NW18G28   29.72R
SIDNEY         CLOUDY    54  26  34 NW21G28   29.77R

...WESTERN AND NORTH CENTRAL NEBRASKA...

CITY           SKY/WX    TMP DP  RH WIND       PRES   REMARKS
VALENTINE      PTCLDY    60  42  51 N25G35    29.60R
AINSWORTH      PTCLDY    68  41  37 NW26G36   29.57R
ONEILL         PTCLDY    73  39  29 N9        29.51F
BROKEN BOW     PTCLDY    71  23  16 N21       29.52R
IMPERIAL       MOCLDY    66  22  18 N24G32    29.59R
NORTH PLATTE   MOCLDY    70  27  20 N17       29.53R
MCCOOK         TSTM      68  46  45 NE13      29.51R

...EASTERN NEBRASKA...

CITY           SKY/WX    TMP DP  RH WIND       PRES   REMARKS
NORFOLK        CLOUDY    55  47  74 SE22G29   29.52F
SO SIOUX CITY  TSTM      54  46  74 SE17G28   29.65S
TEKAMAH        RAIN      53  47  79 S18       29.69R
COLUMBUS       CLOUDY    61  48  63 SE23G32   29.58R
ALBION         CLOUDY    59  48  67 E14G20    29.52S
OMAHA EPPLEY   CLOUDY    56  45  66 SE17      29.63S
OFFUTT AFB     PTCLDY    57  46  65 E15       29.62S
MILLARD        CLOUDY    56  45  67 E9        29.63S
LINCOLN        CLOUDY    62  48  60 N10       29.58F
NEBRASKA CITY  CLOUDY    67  44  43 SE12G24   29.61F
BEATRICE       MOCLDY    75  47  36 SE20G25   29.53S
FALLS CITY     MOCLDY    68  46  45 SE14      29.61F

...NORTHERN KANSAS...

CITY           SKY/WX    TMP DP  RH WIND       PRES   REMARKS
GOODLAND       MOCLDY    69  33  26 N31G43    29.53R
HILL CITY      TSTM      65  49  56 NW23G35   29.48R
PHILLIPSBURG   PTCLDY    79  46  31 S12G26    29.45R THUNDER
SMITH CENTER   CLEAR     75  52  43 S18G25    29.46R
BELOIT         CLEAR     81  46  30 S23G31    29.46S
HAYS           MOCLDY   N/A N/A N/A S37G44    29.43F
RUSSELL        CLOUDY    79  51  37 S32G46    29.44F
CONCORDIA      CLEAR     78  46  32 S25G35    29.48F
SALINA         CLOUDY    80  44  27 S25G35    29.51F
TOPEKA         PTCLDY    78  46  32 SE16      29.62F



USA.gov is the U.S. government's official web portal to all federal, state and local government web resources and services.